Weather History for Caldwell, ID

Change the Weather History Date:

Saturday, March 2, 2013

  Actual Average (KBOI) Record (KBOI)
Temperature  
Mean Temperature 42 °F 41 °F  
Max Temperature 53 °F 50 °F 68 °F (2009)
Min Temperature 30 °F 31 °F 13 °F (1954)
Degree Days  
Heating Degree Days 24 24  
Month to date heating degree days 48  
Since 1 July heating degree days 4207  
Cooling Degree Days 0 0  
Month to date cooling degree days 0  
Year to date cooling degree days 0  
Moisture  
Dew Point 33 °F    
Average Humidity 72    
Maximum Humidity 87    
Minimum Humidity 51    
Precipitation  
Precipitation 0.00 in 0.04 in 0.62 in (1919)
Month to date precipitation 0.08  
Year to date precipitation 2.31  
Snow  
Snow 0.00 in 0.00 in 2.30 in (1912)
Month to date snowfall 0.1  
Since 1 July snowfall 17.7  
Snow Depth -    
Sea Level Pressure  
Sea Level Pressure 30.24 in    
Wind  
Wind Speed 5 mph (SSW)    
Max Wind Speed 15 mph    
Max Gust Speed 21 mph    
Visibility 7 miles    
Events      
T = Trace of Precipitation, MM = Missing Value Source: NWS Daily Summary

Daily Weather History Graph

Daily Weather History Graph

Search for Another Location

Airport:

Trip Planner

Search our weather history database for the weather conditions in past years. The results will help you decide how hot, cold, wet, or windy it might be!

Date:

Astronomy

Mar. 02, 2013 Rise Set
Actual Time 7:20 AM MST 6:37 PM MST
Civil Twilight 6:52 AM MST 7:05 PM MST
Nautical Twilight 6:18 AM MST 7:38 PM MST
Astronomical Twilight 5:45 AM MST 8:12 PM MST
Moon No Moon Rise 9:41 AM MST (3/2)
Length of Visible Light 12h 13m
Length of Day
11h 16m
Waning Gibbous, 73% of the Moon is Illuminated
Mar 2
Waning Gibbous
Mar 4
Last Quarter
Mar 11
New
Mar 19
First Quarter
Mar 27
Full

Hourly Weather History & Observations

Time (MST) Temp. Windchill Dew Point Humidity Pressure Visibility Wind Dir Wind Speed Gust Speed Precip Events Conditions
12:15 AM 30.2 °F - 26.6 °F 86% 30.45 in 0.2 mi Calm Calm - N/A   Overcast
12:35 AM 30.2 °F 24.3 °F 26.6 °F 86% 30.45 in 0.2 mi ENE 5.8 mph - N/A   Overcast
12:55 AM 30.2 °F 24.3 °F 26.6 °F 86% 30.44 in 0.2 mi ENE 5.8 mph - N/A   Overcast
1:15 AM 30.2 °F 26.7 °F 26.6 °F 86% 30.44 in 0.2 mi East 3.5 mph - N/A   Overcast
1:35 AM 30.2 °F - 26.6 °F 86% 30.44 in 0.2 mi Calm Calm - N/A   Overcast
1:55 AM 30.2 °F - 26.6 °F 86% 30.44 in 0.2 mi Calm Calm - N/A   Overcast
2:15 AM 32.0 °F 28.7 °F 28.4 °F 87% 30.43 in 0.2 mi ESE 3.5 mph - N/A   Overcast
2:35 AM 32.0 °F 27.5 °F 28.4 °F 87% 30.43 in 0.2 mi East 4.6 mph - N/A   Overcast
2:55 AM 32.0 °F 27.5 °F 26.6 °F 80% 30.42 in 0.2 mi ESE 4.6 mph - N/A   Overcast
3:15 AM 32.0 °F 27.5 °F 28.4 °F 87% 30.42 in 0.2 mi East 4.6 mph - N/A   Overcast
3:35 AM 32.0 °F 28.7 °F 28.4 °F 87% 30.41 in 0.2 mi ESE 3.5 mph - N/A   Overcast
3:55 AM 32.0 °F 26.4 °F 28.4 °F 87% 30.40 in 0.8 mi SE 5.8 mph - N/A   Overcast
4:15 AM 32.0 °F 28.7 °F 28.4 °F 87% 30.40 in 0.5 mi ESE 3.5 mph - N/A   Overcast
4:35 AM 32.0 °F 28.7 °F 26.6 °F 80% 30.40 in 0.2 mi SE 3.5 mph - N/A   Overcast
4:55 AM 30.2 °F 25.4 °F 26.6 °F 86% 30.39 in 0.2 mi ESE 4.6 mph - N/A   Overcast
5:15 AM 30.2 °F 25.4 °F 26.6 °F 86% 30.39 in 0.2 mi SSW 4.6 mph - N/A   Overcast
5:35 AM 30.2 °F - 26.6 °F 86% 30.39 in 0.2 mi Calm Calm - N/A   Overcast
5:55 AM 32.0 °F 25.6 °F 26.6 °F 80% 30.38 in 0.2 mi South 6.9 mph - N/A   Overcast
6:15 AM 32.0 °F 27.5 °F 28.4 °F 87% 30.37 in 0.2 mi South 4.6 mph - N/A   Overcast
6:35 AM 32.0 °F 25.6 °F 26.6 °F 80% 30.36 in 3.0 mi SE 6.9 mph - N/A   Scattered Clouds
6:55 AM 33.8 °F 29.6 °F 28.4 °F 81% 30.36 in 9.0 mi ESE 4.6 mph - N/A   Clear
7:15 AM 32.0 °F 28.7 °F 26.6 °F 80% 30.35 in 5.0 mi SE 3.5 mph - N/A   Clear
7:35 AM 33.8 °F 25.8 °F 28.4 °F 81% 30.35 in 10.0 mi SSE 10.4 mph - N/A   Clear
7:55 AM 35.6 °F 28.6 °F 28.4 °F 75% 30.34 in 10.0 mi SSE 9.2 mph - N/A   Clear
8:15 AM 35.6 °F 28.6 °F 30.2 °F 81% 30.34 in 10.0 mi SSE 9.2 mph - N/A   Clear
8:35 AM 37.4 °F 29.8 °F 30.2 °F 75% 30.34 in 10.0 mi SSE 11.5 mph 16.1 mph N/A   Clear
8:55 AM 39.2 °F 32.0 °F 30.2 °F 70% 30.34 in 10.0 mi SSE 11.5 mph - N/A   Clear
9:15 AM 39.2 °F 31.6 °F 30.2 °F 70% 30.33 in 10.0 mi SSE 12.7 mph - N/A   Clear
9:35 AM 41.0 °F 33.1 °F 30.2 °F 65% 30.33 in 10.0 mi SSE 15.0 mph 20.7 mph N/A   Clear
9:55 AM 42.8 °F 35.4 °F 32.0 °F 66% 30.33 in 10.0 mi SSE 15.0 mph - N/A   Clear
10:15 AM 44.6 °F 39.2 °F 33.8 °F 66% 30.33 in 10.0 mi SSE 10.4 mph - N/A   Clear
10:35 AM 46.4 °F 41.5 °F 33.8 °F 62% 30.32 in 10.0 mi SSE 10.4 mph - N/A   Clear
10:55 AM 46.4 °F 42.9 °F 35.6 °F 66% 30.31 in 10.0 mi South 6.9 mph - N/A   Clear
11:15 AM 48.2 °F - 35.6 °F 62% 30.30 in 10.0 mi SSW 6.9 mph - N/A   Clear
11:35 AM 48.2 °F - 35.6 °F 62% 30.29 in 10.0 mi South 6.9 mph - N/A   Clear
11:55 AM 50.0 °F - 37.4 °F 62% 30.27 in 10.0 mi SSW 5.8 mph - N/A   Clear
12:15 PM 53.6 °F - 37.4 °F 54% 30.27 in 10.0 mi South 5.8 mph - N/A   Clear
12:35 PM 51.8 °F - 37.4 °F 58% 30.26 in 10.0 mi WSW 6.9 mph - N/A   Clear
12:55 PM 51.8 °F - 37.4 °F 58% 30.24 in 10.0 mi SW 10.4 mph - N/A   Clear
1:15 PM 53.6 °F - 35.6 °F 51% 30.23 in 10.0 mi SSW 8.1 mph - N/A   Clear
1:35 PM 53.6 °F - 37.4 °F 54% 30.19 in 10.0 mi South 5.8 mph - N/A   Clear
1:55 PM 51.8 °F - 39.2 °F 62% 30.18 in 10.0 mi West 3.5 mph - N/A   Clear
2:15 PM 53.6 °F - 39.2 °F 58% 30.17 in 10.0 mi WNW 8.1 mph - N/A   Clear
2:35 PM 53.6 °F - 39.2 °F 58% 30.16 in 10.0 mi WNW 5.8 mph - N/A   Clear
2:55 PM 53.6 °F - 39.2 °F 58% 30.15 in 10.0 mi WNW 9.2 mph - N/A   Clear
3:15 PM 53.6 °F - 39.2 °F 58% 30.14 in 10.0 mi NW 6.9 mph - N/A   Clear
3:35 PM 53.6 °F - 39.2 °F 58% 30.13 in 10.0 mi NW 8.1 mph - N/A   Clear
3:55 PM 53.6 °F - 39.2 °F 58% 30.13 in 10.0 mi NNW 5.8 mph - N/A   Clear
4:15 PM 53.6 °F - 39.2 °F 58% 30.12 in 10.0 mi NW 6.9 mph - N/A   Partly Cloudy
4:55 PM 53.6 °F - 39.2 °F 58% 30.10 in 10.0 mi North 5.8 mph - N/A   Clear
5:15 PM 53.6 °F - 39.2 °F 58% 30.10 in 10.0 mi North 6.9 mph - N/A   Partly Cloudy
5:35 PM 51.8 °F - 39.2 °F 62% 30.09 in 10.0 mi NNW 6.9 mph - N/A   Clear
5:55 PM 51.8 °F - 39.2 °F 62% 30.09 in 10.0 mi NNW 9.2 mph - N/A   Clear
6:15 PM 48.2 °F - 37.4 °F 66% 30.09 in 10.0 mi NNW 8.1 mph - N/A   Clear
6:35 PM 48.2 °F - 37.4 °F 66% 30.09 in 10.0 mi NW 6.9 mph - N/A   Clear
6:55 PM 46.4 °F 42.9 °F 37.4 °F 71% 30.09 in 10.0 mi NW 6.9 mph - N/A   Scattered Clouds
7:15 PM 46.4 °F 43.5 °F 37.4 °F 71% 30.08 in 10.0 mi NW 5.8 mph - N/A   Mostly Cloudy
7:35 PM 46.4 °F 44.3 °F 37.4 °F 71% 30.08 in 10.0 mi WNW 4.6 mph - N/A   Overcast
7:55 PM 46.4 °F 45.2 °F 37.4 °F 71% 30.07 in 10.0 mi WNW 3.5 mph - N/A   Overcast
8:15 PM 46.4 °F 43.5 °F 37.4 °F 71% 30.07 in 10.0 mi West 5.8 mph - N/A   Overcast
8:35 PM 46.4 °F 43.5 °F 37.4 °F 71% 30.07 in 10.0 mi West 5.8 mph - N/A   Scattered Clouds
8:55 PM 44.6 °F 43.1 °F 37.4 °F 76% 30.06 in 10.0 mi West 3.5 mph - N/A   Mostly Cloudy
9:15 PM 44.6 °F 40.2 °F 35.6 °F 71% 30.06 in 10.0 mi WNW 8.1 mph - N/A   Mostly Cloudy
9:35 PM 44.6 °F 41.4 °F 35.6 °F 71% 30.05 in 10.0 mi NNW 5.8 mph - N/A   Mostly Cloudy
9:55 PM 44.6 °F 41.4 °F 35.6 °F 71% 30.06 in 10.0 mi West 5.8 mph - N/A   Overcast
10:15 PM 44.6 °F 42.2 °F 35.6 °F 71% 30.04 in 10.0 mi SSE 4.6 mph - N/A   Overcast
10:35 PM 42.8 °F 39.3 °F 35.6 °F 76% 30.05 in 10.0 mi NW 5.8 mph - N/A   Mostly Cloudy
10:55 PM 42.8 °F 40.1 °F 35.6 °F 76% 30.05 in 10.0 mi NNW 4.6 mph - N/A   Overcast
11:15 PM 42.8 °F - 35.6 °F 76% 30.04 in 10.0 mi Calm Calm - N/A   Scattered Clouds
11:35 PM 42.8 °F - 35.6 °F 76% 30.04 in 10.0 mi Calm Calm - N/A   Scattered Clouds
11:55 PM 41.0 °F - 35.6 °F 81% 30.03 in 10.0 mi Calm Calm - N/A   Mostly Cloudy